User: anonymous   Login
Location: Unspecified
(0.0000°N, 0.0000°E)
Time: 19:01:15
(UTC+00:00)
Language:

Hispasat 36W-1 - Orbit

View from above orbital plane
View from above orbital plane
View from above satellite
View from above satellite

Ground track
Ground track

The orbit data is extracted from the following two-line orbital elements,

1 41942U 17006A   18225.20667425 -.00000271 +00000-0 +00000-0 0  9995
2 41942 000.0078 091.0997 0000903 053.1879 215.7185 01.00270717005804
Epoch (UTC): 13 August 2018 04:57:36
Eccentricity: 0.0000903
inclination: 0.0078°
perigee height: 35783 km
apogee height: 35790 km
right ascension of ascending node: 91.0997°
argument of perigee: 53.1879°
revolutions per day: 1.00270717
mean anomaly at epoch: 215.7185°
orbit number at epoch: 580

The dashed part of the orbit path shows where the satellite is in the earth's shadow,  

DLR